Weather History for Rapid City, SD

Change the Weather History Date:

Wednesday, November 17, 2010

  Actual Average Record
Temperature  
Mean Temperature 28 °F 34 °F  
Max Temperature 33 °F 46 °F 72 °F (1953)
Min Temperature 23 °F 21 °F -9 °F (1959)
Degree Days  
Heating Degree Days 37 31  
Month to date heating degree days 391 464  
Since 1 July heating degree days 943 1226  
Cooling Degree Days 0 0  
Month to date cooling degree days 0 0  
Year to date cooling degree days 532 636  
Moisture  
Dew Point 27 °F    
Average Humidity 89    
Maximum Humidity 100    
Minimum Humidity 78    
Precipitation  
Precipitation 0.02 in 0.02 in 0.23 in (1994)
Month to date precipitation 0.05 0.36  
Year to date precipitation 18.26 15.70  
Snow  
Snow 0.40 in 0.20 in 2.60 in (1994)
Month to date snowfall 0.4 3.5  
Since 1 July snowfall 0.4 5.3  
Since 1 September snowfall 0.4 5.3  
Snow Depth T in    
Sea Level Pressure  
Sea Level Pressure 30.23 in    
Wind  
Wind Speed 11 mph (NNE)    
Max Wind Speed 18 mph    
Max Gust Speed 22 mph    
Visibility 7 miles    
Events Snow    
T = Trace of Precipitation, MM = Missing Value Source: NWS Daily Summary

Daily Weather History Graph

Daily Weather History Graph

Search for Another Location

Airport:

Trip Planner

Search our weather history database for the weather conditions in past years. The results will help you decide how hot, cold, wet, or windy it might be!

Date:

Astronomy

Nov. 17, 2010 Rise Set
Actual Time 6:49 AM MST 4:23 PM MST
Civil Twilight 6:18 AM MST 4:55 PM MST
Nautical Twilight 5:43 AM MST 5:30 PM MST
Astronomical Twilight 5:09 AM MST 6:04 PM MST
Moon 2:02 PM MST (11/17) 2:44 AM MST (11/17)
Length of Visible Light 10h 36m
Length of Day
9h 34m
Waxing Gibbous, 85% of the Moon is Illuminated
Nov 17
Waxing Gibbous
Nov 21
Full
Nov 28
Last Quarter
Dec 5
New
Dec 13
First Quarter

Hourly Weather History & Observations

Time (MST) Temp. Windchill Dew Point Humidity Pressure Visibility Wind Dir Wind Speed Gust Speed Precip Events Conditions
12:52 AM 33.1 °F 26.9 °F 30.9 °F 92% 30.08 in 10.0 mi NW 6.9 mph - N/A   Overcast
1:52 AM 32.0 °F 24.2 °F 30.9 °F 96% 30.11 in 4.0 mi NNW 9.2 mph - 0.00 in Snow Light Snow
2:08 AM 32.0 °F 24.8 °F 30.2 °F 93% 30.05 in 5.0 mi NNW 8.1 mph - 0.00 in Snow Light Snow
2:52 AM 32.0 °F 23.0 °F 30.0 °F 92% 30.15 in 4.0 mi NNW 11.5 mph - 0.00 in Snow Light Snow
3:52 AM 32.0 °F 25.6 °F 30.0 °F 92% 30.16 in 9.0 mi NW 6.9 mph - 0.00 in Snow Light Snow
4:52 AM 32.0 °F 22.5 °F 28.9 °F 88% 30.20 in 7.0 mi NNW 12.7 mph - 0.00 in Snow Light Snow
5:52 AM 30.9 °F 21.2 °F 28.0 °F 89% 30.22 in 10.0 mi North 12.7 mph - 0.00 in   Overcast
6:21 AM 30.2 °F 19.3 °F 28.4 °F 93% 30.15 in 7.0 mi North 15.0 mph - 0.00 in Snow Light Snow
6:41 AM 30.2 °F 19.8 °F 28.4 °F 93% 30.16 in 3.0 mi North 13.8 mph - 0.00 in Snow Light Snow
6:52 AM 30.2 °F 18.5 °F 28.4 °F 93% 30.17 in 4.0 mi North 17.3 mph - N/A Snow Light Snow
7:04 AM 30.2 °F 18.9 °F 28.4 °F 93% 30.18 in 4.0 mi North 16.1 mph - 0.00 in Snow Light Snow
7:18 AM 30.2 °F 19.3 °F 28.4 °F 93% 30.19 in 6.0 mi North 15.0 mph - N/A Snow Light Snow
7:52 AM 28.9 °F 18.2 °F 28.0 °F 96% 30.30 in 10.0 mi NNE 13.8 mph - 0.00 in   Overcast
8:52 AM 30.0 °F 21.7 °F 28.0 °F 92% 30.33 in 10.0 mi NE 9.2 mph - 0.00 in   Overcast
9:24 AM 30.2 °F 22.6 °F 28.4 °F 93% 30.25 in 10.0 mi NNE 8.1 mph - N/A   Overcast
9:31 AM 30.2 °F 21.3 °F 28.4 °F 93% 30.25 in 7.0 mi North 10.4 mph - 0.00 in Snow Light Snow
9:40 AM 30.2 °F 21.9 °F 28.4 °F 93% 30.25 in 8.0 mi North 9.2 mph - 0.00 in Snow Light Snow
9:52 AM 30.0 °F 21.1 °F 28.0 °F 92% 30.35 in 10.0 mi North 10.4 mph - 0.00 in   Overcast
10:09 AM 30.2 °F 21.9 °F 28.4 °F 93% 30.26 in 8.0 mi North 9.2 mph - 0.00 in Snow Light Snow
10:20 AM 30.2 °F 23.4 °F 28.4 °F 93% 30.26 in 3.0 mi NNE 6.9 mph - 0.01 in Snow Light Snow
10:39 AM 28.4 °F 17.0 °F 26.6 °F 93% 30.27 in 2.0 mi NNW 15.0 mph - 0.01 in Snow Light Snow
10:47 AM 28.4 °F 17.0 °F 26.6 °F 93% 30.27 in 1.8 mi NNW 15.0 mph - 0.01 in Snow Light Snow
10:48 AM 28.0 °F 16.1 °F 27.0 °F 96% 30.38 in 1.8 mi NNW 16.1 mph - 0.01 in Snow Light Snow
10:55 AM 28.4 °F 17.0 °F 26.6 °F 93% 30.27 in 3.0 mi NNW 15.0 mph - 0.00 in Snow Light Snow
11:47 AM 28.4 °F 17.5 °F 26.6 °F 93% 30.25 in 1.8 mi North 13.8 mph - 0.01 in Snow Light Snow
11:52 AM 28.9 °F 18.2 °F 27.0 °F 92% 30.35 in 1.8 mi North 13.8 mph - 0.01 in Snow Light Snow
12:01 PM 28.4 °F 18.5 °F 26.6 °F 93% 30.25 in 3.0 mi North 11.5 mph - 0.00 in Snow Light Snow
12:09 PM 30.2 °F 20.8 °F 26.6 °F 86% 30.24 in 8.0 mi North 11.5 mph - 0.00 in Snow Light Snow
12:52 PM 30.9 °F 23.5 °F 28.0 °F 89% 30.33 in 10.0 mi North 8.1 mph - 0.00 in   Overcast
1:18 PM 30.2 °F 21.9 °F 28.4 °F 93% 30.24 in 10.0 mi North 9.2 mph - N/A   Overcast
1:31 PM 30.2 °F 22.6 °F 26.6 °F 86% 30.24 in 10.0 mi North 8.1 mph - N/A   Overcast
1:52 PM 32.0 °F 24.8 °F 27.0 °F 82% 30.32 in 10.0 mi North 8.1 mph - N/A   Mostly Cloudy
2:27 PM 30.2 °F 25.4 °F 26.6 °F 86% 30.22 in 10.0 mi NE 4.6 mph - N/A   Overcast
2:52 PM 30.9 °F 26.2 °F 27.0 °F 85% 30.32 in 10.0 mi ENE 4.6 mph - N/A   Overcast
3:33 PM 30.2 °F 24.3 °F 26.6 °F 86% 30.22 in 10.0 mi East 5.8 mph - N/A   Overcast
3:52 PM 30.0 °F 24.1 °F 27.0 °F 88% 30.32 in 10.0 mi ESE 5.8 mph - N/A   Overcast
4:05 PM 30.2 °F 23.4 °F 26.6 °F 86% 30.22 in 10.0 mi ESE 6.9 mph - N/A   Overcast
4:14 PM 30.2 °F 22.6 °F 26.6 °F 86% 30.22 in 10.0 mi SE 8.1 mph - N/A   Overcast
4:52 PM 30.0 °F 21.1 °F 28.0 °F 92% 30.31 in 10.0 mi SE 10.4 mph - N/A   Overcast
5:52 PM 28.9 °F 20.4 °F 28.0 °F 96% 30.31 in 10.0 mi SSE 9.2 mph - N/A   Overcast
6:52 PM 28.9 °F 19.2 °F 28.0 °F 96% 30.29 in 10.0 mi SSE 11.5 mph - N/A   Overcast
7:52 PM 28.0 °F 17.5 °F 28.0 °F 100% 30.28 in 10.0 mi SSE 12.7 mph - N/A   Overcast
8:52 PM 28.9 °F 18.2 °F 27.0 °F 92% 30.25 in 10.0 mi South 13.8 mph - N/A   Overcast
9:37 PM 28.4 °F 16.2 °F 28.4 °F 100% 30.13 in 10.0 mi South 17.3 mph - N/A   Overcast
9:52 PM 28.0 °F 17.5 °F 27.0 °F 96% 30.24 in 10.0 mi South 12.7 mph - N/A   Mostly Cloudy
10:07 PM 28.4 °F 17.0 °F 26.6 °F 93% 30.13 in 10.0 mi South 15.0 mph - N/A   Scattered Clouds
10:52 PM 24.1 °F 13.1 °F 23.0 °F 96% 30.24 in 9.0 mi SSE 11.5 mph - N/A   Partly Cloudy
11:22 PM 23.0 °F 11.7 °F 21.2 °F 93% 30.10 in 6.0 mi SSE 11.5 mph - N/A   Scattered Clouds
11:28 PM 23.0 °F 11.1 °F 23.0 °F 100% 30.10 in 2.5 mi SSE 12.7 mph - N/A   Mostly Cloudy
11:34 PM 23.0 °F 11.1 °F 23.0 °F 100% 30.09 in 0.8 mi SSE 12.7 mph - N/A   Mist
11:52 PM 24.1 °F 13.7 °F 24.1 °F 100% 30.20 in 0.8 mi SE 10.4 mph - N/A   Mist